unique visitors counter

Jackpot

Texas Poker Multi Jackpot System

Kini Telah hadir Jackpot SUPER ROYAL FLUSH

Kini Telah hadir Jackpot 2000 (khusus table VIP keatas).

Ikutilah global jackpot yang tersedia di system kami, dengan system jackpot terbaru dan pertama di indonesia, anda dapat membeli jackpot dengan harga 100 rupiah saja dan menangkan hadiahnya hingga puluhan juta rupiah.

Jackpot bukanlah suatu keharusan untuk dibeli, namun kami memberikan suatu fitur tambahan untuk member tercinta dari www.pokertexas88.com.

Terdapat tiga pilihan harga jackpot yang bisa anda beli yaitu :100,500,1000 dan 2000(khusus table VIP Keatas) rupiah.

Hadiah dari Multi jackpot system www.pokertexas88.com

  1. full house x 10 harga jackpot yang anda beli.
      (contoh:anda membeli 1000 maka:1000 X10 = 10.000)
  2. four of kind x 250 harga jackpot yang anda beli
      (contoh:anda membeli 1000 maka:1000 X250 = 250.000)
  3. Straight flush x 1200
      (contoh:anda membeli 1000 maka:1000 X1200 = 1.200.000)
  4. Royal flush x 10000 harga jackpot yang anda beli
      (contoh:anda membeli 1000 maka:1000 X10000 = 10.000.000)
  5. SUPER ROYAL FLUSH x 30000 harga jackpot yang anda beli
      (contoh:anda membeli 1000 maka:1000 X30000 = 30.000.000)

Kondisi kartu

  1. full house adalah kondisi kartu dimana kartu anda dan kartu tengah dengan total 7 kartu bisa mendapatkan nilai 5 kartu dengan kombinasi 1 tris(three of kind) dan 1 pair, contoh 3 kartu 10 dan 2 kartu 5
  2. Four of kind adalah kondisi kartu dimana kartu anda dan kartu tengah dengan total 7 kartu bisa mendapatkan nilai 5 kartu dengan kombinasi 4 kartu yang sama jumlah dan 1 kartu apapun juga contoh anda mendapatkan 4 buah kartu angka 3 dan 1 kartu apapun.
  3. Staright flush adalah kondisi kartu dimana kartu anda dan kartu tengah dengan total 7 kartu bisa mendapatkan nilai 5 kartu dengan kombinasi seri / staright dengan kembang yang sama contoh : urutan kartu dari angka 5, 6, 7, 8 , 9 10 dengan kembang yg sama misalnya as hati
  4. Royal flush adalah kondisi kartu dimana kartu anda dan kartu tengah dengan total 7 kartu bisa mendapatkan nilai 5 kartu dengan kombinasi seri / staright dengan kembang yang sama tetapi kartu tersebut haruslah dimulai dari 10. contoh 10, Queen, Jack, King dan aces dengan kembang yang sama
  5. Super Royal flush adalah kondisi kartu dimana Kedua kartu anda digabung dengan 3 kartu pertama meja haruslah royal flush. contoh kartu anda 10,Queen kembang sama dan 3 kartu pertama meja adalah Jack, King dan aces dengan kembang yang sama

Demikian adalah penjelasan dari Multi Jackpot www.pokertexas88.com terima kasih dan selamat bermain salam hoki dari kami

Texas Poker Jackpot Winner

TOP SUPER ROYAL FLUSH
No.TanggalNamaPriceWin
121/07 02:20YOKOKLENSuper Royal flush1,500,000
221/07 00:26RIKACELL11Super Royal flush3,000,000
321/07 00:08ANKAR2018Super Royal flush6,000,000
421/07 00:07GACIEL1988Super Royal flush15,000,000
520/07 23:44KEKASIIHKUSuper Royal flush30,000,000
TOP ROYAL FLUSH
No.TanggalNamaPriceWin
121/07 06:29K0L3NK88Royal flush2,000,000
221/07 06:23KIMSALVE30Royal flush10,000,000
321/07 06:05AN75Z401MKRoyal flush2,000,000
421/07 05:12NDX9999Royal flush10,000,000
521/07 04:59PRASANGKA1Royal flush5,000,000
TOP STRAIGHT FLUSH
No.TanggalNamaPriceWin
121/07 07:04BAGUSHARStraight Flush120,000
221/07 07:03SRNIK030377GXStraight Flush240,000
321/07 07:02JJJRRRIIIStraight Flush240,000
421/07 06:5677___77Straight Flush120,000
521/07 06:55TEMPIK01Straight Flush240,000
LATEST JACKPOT
No.TanggalNamaPriceWin
121/07 07:07ME57Full House5,000
221/07 07:07MPD1103Full House2,000
321/07 07:07SRINTIL222Full House500
421/07 07:07OALAAAAAAFull House1,000
521/07 07:07UAH234Full House5,000
621/07 07:07UTHABFFull House10,000
721/07 07:07KONSER86Full House2,000
821/07 07:07FRANKEZ78Full House2,000
921/07 07:07NAIYMFull House2,000
1021/07 07:07Z4456BUFull House20,000
1121/07 07:07OXHMXV86VVFull House5,000
1221/07 07:07BK8XV7I4BTFour Of A Kind50,000
1321/07 07:07A_SYAHFull House2,000
1421/07 07:07SITOYUSZFull House20,000
1521/07 07:07HARDIKNESQFull House1,000
1621/07 07:07APL3S12Four Of A Kind50,000
1721/07 07:07EKOHAZZARDFull House2,000
1821/07 07:06WASEX06Full House20,000
1921/07 07:06KUPRET7310Full House5,000
2021/07 07:06FAY3Four Of A Kind50,000
2121/07 07:06SLOWNDAR12Full House5,000
2221/07 07:06TOLET69Full House10,000
2321/07 07:06ZNOL900Full House5,000
2421/07 07:06A27EGU5545Full House5,000
2521/07 07:06SITBULLFull House1,000
2621/07 07:06GINDAHRP91Full House5,000
2721/07 07:06MULER00Full House5,000
2821/07 07:06M999MLNFull House10,000
2921/07 07:06JIVAIR11Full House1,000
3021/07 07:06PPA2121Full House5,000
3121/07 07:06WDDONKS88Full House10,000
3221/07 07:06FLORA8778Full House2,000
3321/07 07:06LUMFull House10,000
3421/07 07:06MVS040882Full House5,000
3521/07 07:06JIE21Four Of A Kind50,000
3621/07 07:06TIGERWOOFull House2,000
3721/07 07:06J4M3RONGFull House10,000
3821/07 07:06BLUP12Full House1,000
3921/07 07:06CRYSWEETFull House500
4021/07 07:06D694FAF2Full House1,000
4121/07 07:06ZLJZ000Full House5,000
4221/07 07:06CF7443F8Full House5,000
4321/07 07:06SAKITGIGI7Full House500
4421/07 07:06ARIES178Full House10,000
4521/07 07:06WHAT_APPFull House5,000
4621/07 07:06BONCEL1174Full House2,000
4721/07 07:06F62F46DEFull House10,000
4821/07 07:06LABILL86Full House2,000
4921/07 07:06INJHODI02Full House5,000
5021/07 07:05BEACH19Full House2,000

Domino Multi Jackpot System

Ikutilah global jackpot yang tersedia di system kami, dengan system jackpot terbaru dan pertama di indonesia, anda dapat membeli jackpot dengan harga 100 rupiah saja dan menangkan hadiahnya hingga puluhan juta rupiah.

Jackpot bukanlah suatu keharusan untuk dibeli, namun kami memberikan suatu fitur tambahan untuk member tercinta dari www.pokertexas88.com.

Terdapat tiga pilihan harga jackpot yang bisa anda beli yaitu :100,500 dan 1000 rupiah.

Hadiah dari Multi jackpot system www.pokertexas88.com

  1. Murni Kecil x 50 harga jackpot yang anda beli.
      (contoh:anda membeli 1000 maka:1000 X 50 = 50.000)
  2. Murni Besar x 50 harga jackpot yang anda beli
      (contoh:anda membeli 1000 maka:1000 X 50 = 50.000)
  3. BALAK x 100 harga jackpot yang anda beli
      (contoh:anda membeli 1000 maka:1000 X 100 = 100.000)
  4. ENAM DEWA x 6666 harga jackpot yang anda beli
      (contoh:anda membeli 1000 maka:1000 X 6666 = 6.666.000)

Demikian adalah penjelasan dari Multi Jackpot www.pokertexas88.com terima kasih dan selamat bermain salam hoki dari kami

Domino Jackpot Winner

TOP ENAM DEWA
No.TanggalNamaPriceWin
121/07 01:22GARANG6666murni enam666,600
220/07 23:52BONG023murni enam6,666,000
320/07 23:19ACAIYHAHmurni enam6,666,000
420/07 22:40ANDREEW80murni enam6,666,000
520/07 21:10SNI53447murni enam666,600
TOP BALAK
No.TanggalNamaPriceWin
121/07 07:04BERDARAbalak100,000
221/07 07:00BBC5FB50balak10,000
321/07 06:54DELLUbalak10,000
421/07 06:54SARDADU17balak50,000
521/07 06:50TAMI012balak100,000
LATEST JACKPOT
No.TanggalNamaPriceWin
121/07 07:05PP000murni besar25,000
221/07 07:05NINIEN21murni besar25,000
321/07 07:04BERDARAbalak100,000
421/07 07:03PERSERUmurni kecil5,000
521/07 07:03ZETANAmurni kecil50,000
621/07 07:02SORIPADA567murni besar5,000
721/07 07:02APRIL365murni kecil5,000
821/07 07:02DIDUDAM88murni kecil5,000
921/07 07:01JGERmurni besar50,000
1021/07 07:00BBC5FB50balak10,000
1121/07 06:58CULA89murni kecil50,000
1221/07 06:57UWOK1213murni besar50,000
1321/07 06:57B3JOO7murni kecil50,000
1421/07 06:56JOESUKSESmurni besar5,000
1521/07 06:56MEGALOMAN9murni kecil50,000
1621/07 06:56FE03758Amurni kecil5,000
1721/07 06:55TASHIMmurni kecil50,000
1821/07 06:55EMANEKOKmurni besar50,000
1921/07 06:54DELLUbalak10,000
2021/07 06:54SARDADU17balak50,000
2121/07 06:54ABAYOS99murni kecil50,000
2221/07 06:54RAYA1313murni besar25,000
2321/07 06:51SEV77lucky9950,000
2421/07 06:50TAMI012balak100,000
2521/07 06:50AADRBAAD25murni besar50,000
2621/07 06:50IKBALVE999murni kecil25,000
2721/07 06:49KECUK26murni kecil25,000
2821/07 06:48WIRDES1712murni kecil5,000
2921/07 06:48JIETOE88murni kecil50,000
3021/07 06:47MULYA90murni besar50,000
3121/07 06:47MENYUNSURObalak50,000
3221/07 06:47FA_JAR_99lucky9910,000
3321/07 06:45GADIS0916murni besar50,000
3421/07 06:42BARRE55murni kecil50,000
3521/07 06:40KRISTAL06murni kecil5,000
3621/07 06:39JRENGEZbalak10,000
3721/07 06:39ALINE20murni kecil25,000
3821/07 06:38KIKIW39murni besar50,000
3921/07 06:37D2A0AAF7murni besar25,000
4021/07 06:37D2A0AAF7murni besar25,000
4121/07 06:36ABAYOS99murni besar50,000
4221/07 06:36EFICK11balak100,000
4321/07 06:35TOMPUNbalak50,000
4421/07 06:35BR4NBRYNbalak100,000
4521/07 06:35BLIZLOVE24murni kecil50,000
4621/07 06:35CIMENGmurni besar50,000
4721/07 06:33ZKL0AY4HBEmurni besar25,000
4821/07 06:33TAMI012murni kecil50,000
4921/07 06:32ABON09murni kecil50,000
5021/07 06:32DWBTAHAI98murni besar25,000

Ceme Multi Jackpot System

Jackpot dilihat dari gabungan kartu pemain dengan kartu bandar. Bandar harus membeli jackpot sebanyak jumlah player yang sedang duduk. Sebagai contoh bila terdapat 3 pemain duduk bermain, dan bandar memutuskan untuk membeli jackpot Rp 1.000, maka pada periode tersebut bandar akan membeli jackpot sebanyak 3xRp1.000 = Rp3.000.

Jackpot bukanlah suatu keharusan untuk dibeli, namun kami memberikan suatu fitur tambahan untuk member tercinta dari www.pokertexas88.com.

Terdapat tiga pilihan harga jackpot yang bisa anda beli yaitu :100,500 dan 1000 rupiah.

Hadiah dari Multi jackpot system www.pokertexas88.com

  1. Murni Kecil x 50 harga jackpot yang anda beli.
      (contoh:anda membeli 1000 maka:1000 X 50 = 50.000)
  2. Murni Besar x 50 harga jackpot yang anda beli
      (contoh:anda membeli 1000 maka:1000 X 50 = 50.000)
  3. BALAK x 200 harga jackpot yang anda beli
      (contoh:anda membeli 1000 maka:1000 X 200 = 200.000)
  4. ENAM DEWA x 6666 harga jackpot yang anda beli
      (contoh:anda membeli 1000 maka:1000 X 6666 = 6.666.000)

Demikian adalah penjelasan dari Multi Jackpot www.pokertexas88.com terima kasih dan selamat bermain salam hoki dari kami

Ceme Jackpot Winner

TOP ENAM DEWA
No.TanggalNamaPriceWin
121/07 07:04IZZAMKUmurni enam6,666,000
221/07 06:14RAJEK04murni enam6,666,000
321/07 06:14CHOLISI33murni enam666,600
421/07 05:23ATHECAmurni enam666,600
521/07 05:15S4RY24murni enam6,666,000
TOP BALAK
No.TanggalNamaPriceWin
121/07 07:07IDK883646balak200,000
221/07 07:07AHNGACObalak100,000
321/07 07:04TIARAMAHESbalak200,000
421/07 07:03M4H4D3W485balak200,000
521/07 07:03ICAN30balak200,000
LATEST JACKPOT
No.TanggalNamaPriceWin
121/07 07:07DIDOT999murni kecil25,000
221/07 07:07MAJNUNAJAmurni kecil25,000
321/07 07:07ADO002murni besar50,000
421/07 07:07ZHIKOPUTRAmurni kecil50,000
521/07 07:07TOMJERmurni besar50,000
621/07 07:07IDK883646balak200,000
721/07 07:07AHNGACObalak100,000
821/07 07:06VR190716murni kecil50,000
921/07 07:06RAJEK04murni besar50,000
1021/07 07:06RAJEK04murni besar50,000
1121/07 07:06RAJEK04murni besar50,000
1221/07 07:06YURI661murni kecil25,000
1321/07 07:06AAAAAXXM12murni kecil25,000
1421/07 07:06BIBOE168murni kecil50,000
1521/07 07:06IYODI68murni kecil50,000
1621/07 07:06MUMU103murni besar25,000
1721/07 07:05SHAKA34murni kecil50,000
1821/07 07:05DEVIARAHMAmurni kecil5,000
1921/07 07:05CIKES66murni kecil50,000
2021/07 07:05DAENK1985murni besar50,000
2121/07 07:05LK4DBIMA1973murni kecil5,000
2221/07 07:05ICAN30murni kecil25,000
2321/07 07:04SBO58614murni kecil50,000
2421/07 07:04TIARAMAHESbalak200,000
2521/07 07:04R4D3N092murni kecil50,000
2621/07 07:04RESTAPATImurni kecil50,000
2721/07 07:04IZZAMKUmurni enam6,666,000
2821/07 07:04COMRADE88murni kecil50,000
2921/07 07:04CAG99062murni kecil50,000
3021/07 07:04PAKBEEKBROmurni kecil50,000
3121/07 07:04B3B246E1murni kecil50,000
3221/07 07:04DINO1509murni kecil5,000
3321/07 07:03M4H4D3W485balak200,000
3421/07 07:03CHESBELmurni kecil50,000
3521/07 07:03ZAAVIRAmurni kecil25,000
3621/07 07:03RAIFOKmurni kecil50,000
3721/07 07:03ICAN30balak200,000
3821/07 07:03PAKCOY1899balak200,000
3921/07 07:03A40DJ3NGI961murni kecil25,000
4021/07 07:02ORTEGA8790murni kecil25,000
4121/07 07:02GANTENG37murni kecil5,000
4221/07 07:02KEUKEUKCAImurni besar25,000
4321/07 07:02ICAN30murni besar25,000
4421/07 07:02JAYAA112murni kecil50,000
4521/07 07:02ROYKEAJA02balak20,000
4621/07 07:02SKAMPUNG75murni kecil25,000
4721/07 07:01RENDYFATRImurni kecil25,000
4821/07 07:01LK4DBIMA1973murni kecil5,000
4921/07 07:01APACHAM1murni kecil25,000
5021/07 07:01SUKSESVROmurni kecil50,000